GW4208 Weather Reports


Display with metric or nautical units.
time (UTC)temp
F
wind
direction
speed
MPH
gust
MPH
rain 1hr
in
rain 24hr
in
rain mn
in
humidity
%
barometer
mb
20260503052905 37 167 0.0 0.0 0.00 0.00 0.00 86 1012.6
20260503052403 37 167 0.0 0.0 0.00 0.00 0.00 86 1012.8
20260503051859 37 166 0.0 0.0 0.00 0.00 0.00 86 1012.6
20260503051354 37 167 0.0 0.0 0.00 0.00 0.00 86 1013.0
20260503050852 37 167 0.0 0.0 0.00 0.00 0.00 85 1012.9
20260503050348 37 167 0.0 0.0 0.00 0.00 0.00 85 1013.2
20260503045846 37 167 0.0 0.0 0.00 0.00 0.00 85 1013.0
20260503045343 37 167 0.0 0.0 0.00 0.00 0.00 85 1013.1
20260503044839 37 168 0.0 0.0 0.00 0.00 0.00 84 1013.2
20260503044337 37 172 0.0 0.0 0.00 0.00 0.00 84 1013.1
20260503043833 37 178 0.0 1.0 0.00 0.00 0.00 84 1013.2
20260503043331 37 190 1.0 1.0 0.00 0.00 0.00 84 1013.3
20260503042827 37 214 2.0 2.0 0.00 0.00 0.00 84 1013.1
20260503042324 37 190 1.0 2.0 0.00 0.00 0.00 84 1013.2
20260503041819 37 182 1.0 1.0 0.00 0.00 0.00 83 1013.3
20260503041317 38 196 1.0 2.0 0.00 0.00 0.00 83 1013.4
20260503040815 38 191 1.0 1.0 0.00 0.00 0.00 82 1013.4
20260503040312 38 197 0.0 1.0 0.00 0.00 0.00 81 1013.3
20260503035809 38 230 2.0 3.0 0.00 0.04 0.04 80 1013.5
20260503035306 38 167 1.0 2.0 0.00 0.04 0.04 80 1013.3
20260503034803 38 189 2.0 2.0 0.00 0.04 0.04 80 1013.5
20260503034300 38 179 1.0 2.0 0.00 0.04 0.04 79 1013.4
20260503033758 39 184 1.0 1.0 0.00 0.04 0.04 79 1013.5
20260503033255 39 176 1.0 1.0 0.00 0.04 0.04 79 1013.4
20260503032753 39 171 0.0 0.0 0.00 0.04 0.04 78 1013.4
20260503032252 39 177 1.0 1.0 0.00 0.04 0.04 77 1013.4
20260503031748 39 190 1.0 1.0 0.00 0.04 0.04 77 1013.5
20260503031246 39 182 1.0 2.0 0.00 0.04 0.04 77 1013.4
20260503030742 39 169 0.0 0.0 0.00 0.04 0.04 76 1013.5
20260503030239 39 194 1.0 2.0 0.00 0.04 0.04 76 1013.4
20260503025736 39 178 1.0 1.0 0.00 0.04 0.04 75 1013.4
20260503025233 39 175 0.0 1.0 0.00 0.04 0.04 75 1013.4
20260503024730 39 215 2.0 3.0 0.00 0.04 0.04 75 1013.3
20260503024227 39 187 1.0 1.0 0.00 0.04 0.04 75 1013.5
20260503023724 39 184 1.0 1.0 0.00 0.04 0.04 74 1013.6
20260503023221 39 254 6.0 8.0 0.00 0.04 0.04 74 1013.3
20260503022717 39 171 0.0 1.0 0.00 0.04 0.04 73 1013.3
20260503022216 39 154 0.0 0.0 0.00 0.04 0.04 73 1013.4
20260503021714 38 310 1.0 2.0 0.00 0.04 0.04 73 1013.4
20260503021210 39 169 0.0 0.0 0.00 0.04 0.04 72 1013.3
20260503020707 39 225 2.0 2.0 0.00 0.04 0.04 71 1013.5
20260503020204 39 158 0.0 0.0 0.00 0.04 0.04 71 1013.6
20260503015701 39 159 0.0 0.0 0.00 0.04 0.04 71 1013.5
20260503015158 39 204 1.0 2.0 0.00 0.04 0.04 71 1013.4
20260503014654 40 166 0.0 0.0 0.00 0.04 0.04 70 1013.4
20260503014152 40 140 0.0 0.0 0.00 0.04 0.04 69 1013.3
20260503013649 40 199 1.0 1.0 0.00 0.04 0.04 68 1013.4
20260503013147 40 245 1.0 2.0 0.00 0.04 0.04 67 1013.4
20260503012644 40 167 0.0 1.0 0.00 0.04 0.04 67 1013.2
20260503012140 40 176 0.0 1.0 0.00 0.04 0.04 67 1013.2
20260503011637 41 168 0.0 0.0 0.00 0.04 0.04 66 1013.3
20260503011134 41 200 1.0 1.0 0.00 0.04 0.04 66 1013.4
20260503010630 41 134 0.0 0.0 0.00 0.04 0.04 65 1013.1
20260503010128 41 162 0.0 0.0 0.00 0.04 0.04 65 1013.0
20260503005625 41 192 1.0 1.0 0.00 0.04 0.04 65 1013.2
20260503005122 41 176 0.0 0.0 0.00 0.04 0.04 65 1013.2
20260503004618 41 170 0.0 1.0 0.00 0.04 0.04 64 1012.9
20260503004117 41 132 1.0 2.0 0.00 0.04 0.04 64 1012.9
20260503003613 42 174 0.0 0.0 0.00 0.04 0.04 63 1013.0
20260503003110 42 176 0.0 1.0 0.00 0.04 0.04 63 1013.1
20260503002607 42 173 0.0 0.0 0.00 0.04 0.04 62 1013.0
20260503002104 42 159 0.0 0.0 0.00 0.04 0.04 62 1013.0
20260503001600 43 183 1.0 1.0 0.00 0.04 0.04 61 1012.8
20260503001057 43 186 1.0 1.0 0.00 0.04 0.04 60 1012.7
20260503000555 43 213 1.0 2.0 0.00 0.04 0.04 58 1012.8
20260503000052 43 155 1.0 1.0 0.00 0.04 0.04 58 1012.7
20260502235548 44 170 1.0 1.0 0.00 0.04 0.04 59 1012.7
20260502235046 44 219 1.0 2.0 0.00 0.04 0.04 58 1012.7
20260502234542 44 242 3.0 4.0 0.00 0.04 0.04 55 1012.7
20260502234040 45 221 1.0 2.0 0.00 0.04 0.04 54 1012.5
20260502233540 45 27 2.0 4.0 0.00 0.04 0.04 53 1012.5
20260502233037 45 159 2.0 2.0 0.00 0.04 0.04 52 1012.5
20260502232533 45 225 2.0 3.0 0.00 0.04 0.04 53 1012.6
20260502232031 46 288 3.0 3.0 0.00 0.04 0.04 53 1012.4
20260502231528 46 266 2.0 3.0 0.00 0.04 0.04 51 1012.5
20260502231025 46 286 3.0 3.0 0.00 0.04 0.04 51 1012.5
20260502230524 46 204 5.0 7.0 0.00 0.04 0.04 51 1012.4
20260502230022 46 276 4.0 4.0 0.00 0.04 0.04 50 1012.5
20260502225517 46 126 1.0 1.0 0.00 0.04 0.04 51 1012.4
20260502225014 46 252 2.0 3.0 0.00 0.04 0.04 50 1012.6
20260502224510 46 236 4.0 4.0 0.00 0.04 0.04 50 1012.4
20260502224008 47 188 2.0 2.0 0.00 0.04 0.04 50 1012.6
20260502223505 48 231 1.0 2.0 0.00 0.04 0.04 51 1012.5
20260502223003 48 359 4.0 4.0 0.00 0.04 0.04 48 1012.4
20260502222500 48 228 3.0 3.0 0.00 0.04 0.04 47 1012.5
20260502221956 46 209 2.0 3.0 0.00 0.04 0.04 53 1012.6
20260502221452 47 234 4.0 6.0 0.00 0.04 0.04 51 1012.6
20260502220949 46 196 1.0 1.0 0.00 0.04 0.04 55 1012.6
20260502220445 46 258 4.0 4.0 0.00 0.04 0.04 55 1012.5
20260502215942 46 198 2.0 3.0 0.00 0.04 0.04 54 1012.6
20260502215439 46 221 3.0 3.0 0.00 0.04 0.04 52 1012.7
20260502214936 46 176 0.0 1.0 0.00 0.04 0.04 54 1012.9
20260502214433 47 158 1.0 2.0 0.00 0.04 0.04 56 1012.7
20260502213931 48 222 3.0 4.0 0.00 0.04 0.04 50 1012.8
20260502213427 46 239 2.0 3.0 0.00 0.04 0.04 56 1012.7
20260502212926 45 208 4.0 4.0 0.00 0.04 0.04 57 1012.8
20260502212424 45 275 4.0 6.0 0.00 0.04 0.04 56 1012.8
20260502211921 45 329 3.0 4.0 0.00 0.04 0.04 57 1012.7
20260502211417 45 221 3.0 4.0 0.00 0.04 0.04 56 1012.8
20260502210914 46 95 2.0 3.0 0.00 0.04 0.04 56 1012.8
20260502210411 46 174 2.0 3.0 0.00 0.04 0.04 58 1012.7
20260502205909 46 268 2.0 4.0 0.00 0.04 0.04 57 1012.7
20260502205404 46 289 2.0 3.0 0.00 0.04 0.04 58 1012.7
20260502204902 45 244 5.0 7.0 0.00 0.04 0.04 58 1012.8
20260502204359 45 220 3.0 3.0 0.00 0.04 0.04 57 1012.6
20260502203856 46 189 2.0 2.0 0.00 0.04 0.04 58 1012.7
20260502203354 46 188 2.0 4.0 0.00 0.04 0.04 57 1012.8
20260502202849 46 128 1.0 2.0 0.00 0.04 0.04 57 1012.7
20260502202347 46 235 4.0 6.0 0.00 0.04 0.04 56 1012.6
20260502201845 47 188 1.0 1.0 0.00 0.04 0.04 57 1012.7
20260502201341 47 159 0.0 1.0 0.00 0.04 0.04 56 1012.6
20260502200837 46 108 1.0 1.0 0.00 0.04 0.04 55 1012.8
20260502200333 46 227 2.0 3.0 0.00 0.04 0.04 54 1012.8
20260502195831 46 197 1.0 2.0 0.00 0.04 0.04 55 1012.7
20260502195327 46 233 4.0 6.0 0.00 0.04 0.04 53 1013.0
20260502194824 47 222 4.0 4.0 0.00 0.04 0.04 51 1012.7
20260502194321 48 200 1.0 2.0 0.00 0.04 0.04 49 1012.9
20260502193817 47 221 1.0 1.0 0.00 0.04 0.04 52 1013.0
20260502193314 47 172 0.0 1.0 0.00 0.04 0.04 53 1012.9
20260502192814 47 248 1.0 2.0 0.00 0.04 0.04 50 1013.0
20260502192312 47 223 1.0 2.0 0.00 0.04 0.04 53 1013.1
20260502191809 46 197 3.0 4.0 0.00 0.04 0.04 52 1013.1
20260502191307 47 108 2.0 3.0 0.00 0.04 0.04 55 1013.1
20260502190804 47 266 3.0 4.0 0.00 0.04 0.04 52 1013.2
20260502190301 47 204 3.0 3.0 0.00 0.04 0.04 51 1013.2
20260502185756 48 78 1.0 1.0 0.00 0.04 0.04 51 1013.1
20260502185252 46 39 2.0 3.0 0.00 0.04 0.04 53 1013.2
20260502184749 46 201 1.0 1.0 0.00 0.04 0.04 52 1013.1
20260502184245 46 243 4.0 4.0 0.00 0.04 0.04 52 1013.2
20260502183742 46 319 1.0 2.0 0.00 0.04 0.04 54 1013.2
20260502183238 46 127 1.0 1.0 0.00 0.04 0.04 56 1013.2
20260502182733 46 227 2.0 2.0 0.00 0.04 0.04 58 1013.2
20260502182224 46 42 2.0 2.0 0.00 0.04 0.04 56 1013.1
20260502181720 46 179 0.0 1.0 0.00 0.04 0.04 59 1013.1
20260502181220 46 187 1.0 1.0 0.00 0.04 0.04 57 1013.0
20260502180717 46 167 0.0 0.0 0.00 0.04 0.04 55 1013.2
20260502180214 46 194 1.0 1.0 0.00 0.04 0.04 57 1013.3
20260502170132 46 156 3.0 4.0 0.00 0.04 0.04 57 1013.2
20260502164118 46 23 4.0 6.0 0.00 0.04 0.04 56 1013.3
20260502163614 47 250 3.0 4.0 0.00 0.04 0.04 55 1013.3
20260502163111 46 117 0.0 1.0 0.00 0.04 0.04 59 1013.2
20260502162608 47 251 4.0 6.0 0.00 0.04 0.04 59 1013.3
20260502162105 46 234 5.0 7.0 0.00 0.04 0.04 59 1013.4
20260502161601 45 220 1.0 2.0 0.00 0.04 0.04 59 1013.2
20260502161059 46 301 2.0 4.0 0.00 0.04 0.04 59 1013.4
20260502160557 46 208 2.0 2.0 0.00 0.04 0.04 60 1013.2
20260502152010 44 153 2.0 2.0 0.00 0.04 0.04 67 1013.5
20260502151507 44 107 1.0 2.0 0.00 0.04 0.04 65 1013.7
20260502151004 44 345 2.0 3.0 0.00 0.04 0.04 69 1013.9
20260502150501 43 283 2.0 3.0 0.00 0.04 0.04 73 1013.5
20260502130346 40 242 7.0 9.0 0.00 0.04 0.04 83 1013.4
20260502123329 41 95 1.0 2.0 0.00 0.04 0.04 90 1013.3
20260502122826 41 271 1.0 2.0 0.00 0.04 0.04 91 1013.3
20260502122322 41 215 1.0 2.0 0.00 0.04 0.04 91 1013.3
20260502121821 41 119 1.0 1.0 0.00 0.04 0.04 92 1013.1
20260502121318 41 176 2.0 3.0 0.00 0.04 0.04 92 1013.0
20260502120815 41 251 3.0 4.0 0.00 0.04 0.04 93 1013.2
20260502120311 41 258 3.0 4.0 0.00 0.04 0.04 94 1013.2
20260502115809 41 160 0.0 1.0 0.00 0.04 0.04 94 1013.1
20260502115306 41 214 2.0 2.0 0.00 0.04 0.04 95 1013.0
20260502114801 41 183 1.0 1.0 0.00 0.04 0.04 96 1013.1
20260502114258 41 218 2.0 2.0 0.00 0.04 0.04 97 1013.2
20260502113755 40 256 3.0 3.0 0.00 0.04 0.04 97 1013.2
20260502113253 41 140 0.0 0.0 0.00 0.04 0.04 98 1013.1
20260502112751 40 181 1.0 1.0 0.00 0.04 0.04 98 1013.0
20260502112249 40 179 1.0 1.0 0.00 0.04 0.04 98 1012.9
20260502111745 40 167 1.0 2.0 0.00 0.04 0.04 99 1012.8
20260502111243 40 224 2.0 3.0 0.00 0.04 0.04 99 1012.8
20260502110740 40 232 2.0 2.0 0.00 0.04 0.04 99 1012.9
20260502110238 40 196 1.0 2.0 0.00 0.04 0.04 99 1012.9
20260502105736 40 192 2.0 2.0 0.00 0.04 0.04 99 1012.8
20260502105232 40 182 1.0 1.0 0.00 0.04 0.04 99 1012.7
20260502104730 40 180 1.0 1.0 0.00 0.04 0.04 99 1012.7
20260502104227 40 161 0.0 1.0 0.00 0.04 0.04 99 1012.6
20260502103725 40 199 2.0 2.0 0.00 0.04 0.04 99 1012.6
20260502103222 39 170 1.0 1.0 0.00 0.04 0.04 99 1012.7
20260502102719 39 172 0.0 1.0 0.00 0.04 0.04 99 1012.5
20260502102215 39 173 0.0 1.0 0.00 0.04 0.04 99 1012.6
20260502101713 39 181 2.0 2.0 0.00 0.04 0.04 99 1012.5
20260502101212 39 170 1.0 1.0 0.00 0.04 0.04 99 1012.4
20260502100709 39 176 0.0 0.0 0.00 0.04 0.04 99 1012.3
20260502100208 39 176 0.0 1.0 0.00 0.04 0.04 99 1012.3
20260502091142 40 166 0.0 0.0 0.00 0.04 0.04 99 1012.0
20260502090639 40 166 0.0 1.0 0.00 0.04 0.04 99 1012.0
20260502090136 40 156 0.0 0.0 0.00 0.04 0.04 99 1011.9
20260502071527 40 217 1.0 2.0 0.00 0.04 0.04 99 1012.0
20260502071026 39 181 1.0 1.0 0.00 0.04 0.04 99 1011.9
20260502070524 39 165 0.0 0.0 0.00 0.04 0.04 99 1011.7
20260502070022 39 141 0.0 0.0 0.00 0.04 0.04 99 1011.5
20260502065520 39 141 0.0 0.0 0.00 0.04 0.04 98 1011.2
20260502065017 39 141 0.0 0.0 0.00 0.04 0.04 98 1011.6
20260502064516 39 140 0.0 0.0 0.00 0.04 0.04 98 1011.5
20260502064012 40 139 0.0 0.0 0.00 0.04 0.04 98 1011.5
20260502063510 40 145 0.0 0.0 0.00 0.04 0.04 98 1011.6
20260502063008 40 171 0.0 1.0 0.00 0.04 0.04 98 1011.8
20260502062504 40 159 0.0 0.0 0.00 0.04 0.04 98 1011.9
20260502062003 40 61 2.0 2.0 0.00 0.04 0.04 98 1011.7
20260502061501 40 174 0.0 0.0 0.00 0.04 0.04 98 1011.9
20260502060956 40 175 0.0 1.0 0.00 0.04 0.04 98 1012.1
20260502060452 40 235 1.0 2.0 0.00 0.04 0.04 98 1011.9
20260502055949 40 189 1.0 1.0 0.00 0.04 0.04 98 1012.0
20260502055447 40 181 1.0 1.0 0.00 0.04 0.04 98 1012.1
20260502054946 40 176 1.0 1.0 0.00 0.04 0.04 98 1012.1
20260502054444 41 188 1.0 2.0 0.00 0.04 0.04 98 1011.9
20260502053941 41 188 1.0 1.0 0.00 0.04 0.04 98 1012.0
20260502053438 41 188 1.0 1.0 0.00 0.04 0.04 98 1012.0